Weather History for KLWB - June, 2013

Change the Weather History Date:

Sunday, June 30, 2013

  Actual Average Record
Temperature  
Mean Temperature 68 °F 70 °F  
Max Temperature 80 °F 82 °F 95 °F (2012)
Min Temperature 57 °F 58 °F 48 °F (2004)
Degree Days  
Heating Degree Days 0    
Month to date heating degree days  
Since 1 June heating degree days  
Since 1 July heating degree days  
Cooling Degree Days 4    
Month to date cooling degree days  
Year to date cooling degree days  
Since 1 June cooling degree days  
Growing Degree Days 18 (Base 50)    
Moisture  
Dew Point 56 °F    
Average Humidity 68    
Maximum Humidity 94    
Minimum Humidity 34    
Precipitation  
Precipitation 0.00 in 0.12 in 0.00 in (2015)
Month to date precipitation 3.73  
Year to date precipitation 20.91  
Snow  
Snow 0.00 in - - ()
Month to date snowfall  
Since 1 June snowfall  
Since 1 July snowfall  
Snow Depth -    
Sea Level Pressure  
Sea Level Pressure 29.86 in    
Wind  
Wind Speed 2 mph (SE)    
Max Wind Speed 9 mph    
Max Gust Speed 16 mph    
Visibility 9 miles    
Events      
T = Trace of Precipitation, MM = Missing Value Source: NWS Daily Summary

Daily Weather History Graph

Daily Weather History Graph

Search for Another Location

Airport or City:

Trip Planner

Search our weather history database for the weather conditions in past years. The results will help you decide how hot, cold, wet, or windy it might be!

Date:

Astronomy

Jun. 30, 2013 Rise Set
Actual Time 6:02 AM EDT 8:47 PM EDT
Civil Twilight 5:31 AM EDT 9:18 PM EDT
Nautical Twilight 4:52 AM EDT 9:58 PM EDT
Astronomical Twilight 4:08 AM EDT 10:42 PM EDT
Moon 12:55 AM EDT (6/30) 2:05 PM EDT (6/30)
Length of Visible Light 15h 47m
Length of Day
14h 44m
Last Quarter, 45% of the Moon is Illuminated
Jun 30
Last Quarter
Jul 8
New
Jul 15
First Quarter
Jul 22
Full
Jul 29
Last Quarter

Hourly Weather History & Observations

Time (EDT) Temp. Dew Point Humidity Pressure Visibility Wind Dir Wind Speed Gust Speed Precip Events Conditions
12:15 AM 60.8 °F 57.2 °F 88% 29.81 in 10.0 mi Calm Calm - N/A   Clear
12:35 AM 60.8 °F 57.2 °F 88% 29.81 in 10.0 mi Calm Calm - N/A   Clear
12:55 AM 59.0 °F 55.4 °F 88% 29.81 in 10.0 mi Calm Calm - N/A   Clear
1:15 AM 59.0 °F 57.2 °F 94% 29.82 in 10.0 mi Calm Calm - N/A   Clear
1:35 AM 59.0 °F 55.4 °F 88% 29.81 in 7.0 mi Calm Calm - N/A   Clear
1:55 AM 59.0 °F 55.4 °F 88% 29.81 in 1.0 mi Calm Calm - N/A   Mist
2:15 AM 59.0 °F 55.4 °F 88% 29.81 in 7.0 mi Calm Calm - N/A   Clear
2:35 AM 59.0 °F 55.4 °F 88% 29.81 in 10.0 mi North 4.6 mph - N/A   Clear
2:55 AM 59.0 °F 55.4 °F 88% 29.81 in 2.0 mi Calm Calm - N/A   Scattered Clouds
3:15 AM 57.2 °F 55.4 °F 94% 29.81 in 0.8 mi Calm Calm - N/A   Overcast
3:35 AM 57.2 °F 55.4 °F 94% 29.81 in 1.5 mi Calm Calm - N/A   Overcast
3:55 AM 57.2 °F 55.4 °F 94% 29.81 in 4.0 mi Calm Calm - N/A   Overcast
4:15 AM 57.2 °F 55.4 °F 94% 29.81 in 7.0 mi Calm Calm - N/A   Mostly Cloudy
4:35 AM 57.2 °F 55.4 °F 94% 29.80 in 7.0 mi Calm Calm - N/A   Overcast
4:55 AM 59.0 °F 55.4 °F 88% 29.80 in 7.0 mi Calm Calm - N/A   Overcast
5:15 AM 57.2 °F 55.4 °F 94% 29.81 in 7.0 mi NE 3.5 mph - N/A   Overcast
5:35 AM 59.0 °F 55.4 °F 88% 29.81 in 10.0 mi NE 3.5 mph - N/A   Overcast
5:55 AM 59.0 °F 55.4 °F 88% 29.82 in 10.0 mi Calm Calm - N/A   Overcast
6:15 AM 59.0 °F 55.4 °F 88% 29.83 in 10.0 mi Calm Calm - N/A   Mostly Cloudy
6:35 AM 59.0 °F 55.4 °F 88% 29.83 in 10.0 mi Calm Calm - N/A   Mostly Cloudy
6:55 AM 59.0 °F 55.4 °F 88% 29.84 in 10.0 mi Calm Calm - N/A   Mostly Cloudy
7:15 AM 59.0 °F 55.4 °F 88% 29.85 in 10.0 mi Calm Calm - N/A   Mostly Cloudy
7:35 AM 59.0 °F 55.4 °F 88% 29.86 in 10.0 mi NNE 3.5 mph - N/A   Mostly Cloudy
7:55 AM 59.0 °F 55.4 °F 88% 29.85 in 10.0 mi NNE 4.6 mph - N/A   Scattered Clouds
8:15 AM 60.8 °F 57.2 °F 88% 29.86 in 10.0 mi NE 3.5 mph - N/A   Scattered Clouds
8:35 AM 62.6 °F 59.0 °F 88% 29.86 in 10.0 mi NE 3.5 mph - N/A   Clear
8:55 AM 62.6 °F 59.0 °F 88% 29.86 in 10.0 mi Calm Calm - N/A   Clear
9:15 AM 64.4 °F 59.0 °F 83% 29.86 in 10.0 mi North 4.6 mph - N/A   Clear
9:35 AM 68.0 °F 59.0 °F 73% 29.88 in 10.0 mi Calm Calm - N/A   Scattered Clouds
9:55 AM 68.0 °F 59.0 °F 73% 29.88 in 10.0 mi Calm Calm - N/A   Mostly Cloudy
10:15 AM 69.8 °F 59.0 °F 68% 29.87 in 10.0 mi Calm Calm - N/A   Scattered Clouds
10:35 AM 71.6 °F 59.0 °F 64% 29.87 in 10.0 mi Calm Calm - N/A   Clear
10:55 AM 71.6 °F 59.0 °F 64% 29.87 in 10.0 mi Calm Calm - N/A   Clear
11:15 AM 73.4 °F 55.4 °F 53% 29.88 in 10.0 mi Calm Calm - N/A   Clear
11:35 AM 73.4 °F 55.4 °F 53% 29.88 in 10.0 mi SSW 3.5 mph - N/A   Scattered Clouds
11:55 AM 73.4 °F 55.4 °F 53% 29.87 in 10.0 mi Calm Calm - N/A   Scattered Clouds
12:15 PM 77.0 °F 53.6 °F 44% 29.87 in 10.0 mi Calm Calm - N/A   Clear
12:35 PM 77.0 °F 53.6 °F 44% 29.87 in 10.0 mi South 5.8 mph - N/A   Scattered Clouds
12:55 PM 77.0 °F 51.8 °F 41% 29.87 in 10.0 mi Calm Calm - N/A   Clear
1:15 PM 78.8 °F 50.0 °F 36% 29.87 in 10.0 mi West 3.5 mph - N/A   Clear
1:35 PM 78.8 °F 50.0 °F 36% 29.86 in 10.0 mi WSW 4.6 mph - N/A   Clear
1:55 PM 78.8 °F 51.8 °F 39% 29.86 in 10.0 mi NE 3.5 mph - N/A   Scattered Clouds
2:15 PM 78.8 °F 50.0 °F 36% 29.85 in 10.0 mi WSW 3.5 mph - N/A   Scattered Clouds
2:35 PM 78.8 °F 50.0 °F 36% 29.84 in 10.0 mi West 5.8 mph - N/A   Scattered Clouds
2:55 PM 78.8 °F 50.0 °F 36% 29.84 in 10.0 mi Calm Calm - N/A   Mostly Cloudy
3:15 PM 78.8 °F 48.2 °F 34% 29.84 in 10.0 mi Calm Calm - N/A   Mostly Cloudy
3:35 PM 80.6 °F 50.0 °F 34% 29.84 in 10.0 mi SW 4.6 mph - N/A   Scattered Clouds
3:55 PM 78.8 °F 50.0 °F 36% 29.84 in 10.0 mi SSE 3.5 mph - N/A   Mostly Cloudy
4:15 PM 77.0 °F 55.4 °F 47% 29.84 in 10.0 mi SE 4.6 mph - N/A   Overcast
4:35 PM 78.8 °F 55.4 °F 44% 29.84 in 10.0 mi SSE 4.6 mph - N/A   Overcast
4:55 PM 77.0 °F 57.2 °F 50% 29.84 in 10.0 mi South 4.6 mph - N/A   Overcast
5:15 PM 78.8 °F 55.4 °F 44% 29.84 in 10.0 mi South 4.6 mph - N/A   Scattered Clouds
5:35 PM 78.8 °F 59.0 °F 51% 29.85 in 10.0 mi South 4.6 mph - N/A   Clear
5:55 PM 77.0 °F 57.2 °F 50% 29.84 in 10.0 mi SSE 3.5 mph - N/A   Clear
6:15 PM 77.0 °F 59.0 °F 54% 29.85 in 10.0 mi SE 4.6 mph - N/A   Clear
6:35 PM 77.0 °F 60.8 °F 57% 29.86 in 10.0 mi SE 5.8 mph - N/A   Clear
6:55 PM 77.0 °F 60.8 °F 57% 29.87 in 10.0 mi SSE 4.6 mph - N/A   Scattered Clouds
7:15 PM 75.2 °F 60.8 °F 61% 29.88 in 10.0 mi SSE 3.5 mph - N/A   Scattered Clouds
7:35 PM 73.4 °F 60.8 °F 65% 29.87 in 10.0 mi SSE 4.6 mph - N/A   Scattered Clouds
7:55 PM 73.4 °F 60.8 °F 65% 29.88 in 10.0 mi SE 3.5 mph - N/A   Mostly Cloudy
8:15 PM 73.4 °F 60.8 °F 65% 29.89 in 10.0 mi SSE 4.6 mph - N/A   Scattered Clouds
8:35 PM 73.4 °F 59.0 °F 61% 29.89 in 10.0 mi Calm Calm - N/A   Mostly Cloudy
8:55 PM 71.6 °F 59.0 °F 64% 29.90 in 10.0 mi SSE 4.6 mph - N/A   Overcast
9:15 PM 71.6 °F 59.0 °F 64% 29.91 in 10.0 mi SSE 9.2 mph - N/A   Overcast
9:35 PM 69.8 °F 55.4 °F 60% 29.91 in 10.0 mi SE 4.6 mph - N/A   Mostly Cloudy
9:55 PM 69.8 °F 53.6 °F 56% 29.91 in 10.0 mi SSE 5.8 mph - N/A   Mostly Cloudy
10:15 PM 69.8 °F 55.4 °F 60% 29.91 in 10.0 mi SE 5.8 mph - N/A   Scattered Clouds
10:35 PM 68.0 °F 55.4 °F 64% 29.93 in 10.0 mi Calm Calm - N/A   Mostly Cloudy
10:55 PM 68.0 °F 59.0 °F 73% 29.94 in 10.0 mi ESE 6.9 mph - N/A   Mostly Cloudy
11:15 PM 66.2 °F 59.0 °F 78% 29.94 in 10.0 mi East 8.1 mph 16.1 mph N/A   Mostly Cloudy
11:35 PM 66.2 °F 59.0 °F 78% 29.94 in 10.0 mi ESE 3.5 mph - N/A   Mostly Cloudy
11:55 PM 64.4 °F 59.0 °F 83% 29.92 in 10.0 mi East 4.6 mph - N/A   Mostly Cloudy